BEIJING 1

Last updated on Thu Oct 23 2025 00:02:44 GMT+0000 (Coordinated Universal Time)

1 28890U 05043A 25295.55398987 .00000675 00000+0 14018-3 0 9990 2 28890 98.2617 62.9555 0013641 308.4036 51.5940 14.63292595 65891
UTC large
Height (km)
Speed (km/s)
/
Latitude / Longitude
Inclination (degrees)
Orbital Period (minutes)
Azimuth
Elevation
Range (km)
Doppler Factor

Next 0 passes for location: London (51.5072 / 0.1276)

Sorry there are no passes over London.